TimeCST,TemperatureF,Dew PointF,Humidity,Sea Level PressureIn,VisibilityMPH,Wind Direction,Wind SpeedMPH,Gust SpeedMPH,PrecipitationIn,Events,Conditions,WindDirDegrees,DateUTC
12:56 AM,21.9,19.0,89,30.34,10.0,SW,5.8,-,N/A,,Clear,230,2012-11-28 06:56:00
1:56 AM,21.0,18.0,88,30.35,10.0,WSW,3.5,-,N/A,,Clear,250,2012-11-28 07:56:00
2:56 AM,19.9,17.1,89,30.36,10.0,Calm,Calm,-,N/A,,Clear,0,2012-11-28 08:56:00
3:56 AM,21.0,18.0,88,30.36,10.0,Calm,Calm,-,N/A,,Clear,0,2012-11-28 09:56:00
4:56 AM,19.0,15.1,85,30.38,10.0,Calm,Calm,-,N/A,,Clear,0,2012-11-28 10:56:00
5:56 AM,18.0,15.1,88,30.39,10.0,Calm,Calm,-,N/A,,Clear,0,2012-11-28 11:56:00
6:56 AM,12.9,9.0,84,30.40,10.0,Calm,Calm,-,N/A,,Clear,0,2012-11-28 12:56:00
7:56 AM,16.0,12.9,88,30.40,5.0,Calm,Calm,-,N/A,,Clear,0,2012-11-28 13:56:00
8:20 AM,17.6,15.8,93,30.31,8.0,Calm,Calm,-,N/A,,Scattered Clouds,0,2012-11-28 14:20:00
9:56 AM,32.0,26.1,79,30.36,10.0,SSE,3.5,-,N/A,,Clear,160,2012-11-28 15:56:00
10:56 AM,39.0,25.0,57,30.34,10.0,South,13.8,-,N/A,,Clear,170,2012-11-28 16:56:00
11:56 AM,43.0,23.0,45,30.31,10.0,South,16.1,-,N/A,,Clear,190,2012-11-28 17:56:00
12:56 PM,45.0,24.1,44,30.25,10.0,South,16.1,-,N/A,,Clear,170,2012-11-28 18:56:00
1:56 PM,46.0,23.0,40,30.22,10.0,South,18.4,26.5,N/A,,Clear,180,2012-11-28 19:56:00
2:56 PM,46.9,23.0,39,30.17,10.0,South,15.0,21.9,N/A,,Clear,190,2012-11-28 20:56:00
3:56 PM,46.9,21.9,37,30.14,10.0,South,12.7,-,N/A,,Clear,180,2012-11-28 21:56:00
4:56 PM,44.1,21.9,42,30.12,10.0,South,11.5,-,N/A,,Clear,170,2012-11-28 22:56:00
5:56 PM,41.0,25.0,53,30.12,10.0,South,5.8,-,N/A,,Clear,170,2012-11-28 23:56:00
6:56 PM,39.9,26.1,58,30.13,10.0,SSW,3.5,-,N/A,,Clear,210,2012-11-29 00:56:00
7:56 PM,41.0,26.1,55,30.10,10.0,South,8.1,-,N/A,,Clear,180,2012-11-29 01:56:00
8:56 PM,39.0,26.1,60,30.10,10.0,South,6.9,-,N/A,,Clear,180,2012-11-29 02:56:00
9:56 PM,37.9,26.1,62,30.07,10.0,South,10.4,-,N/A,,Clear,180,2012-11-29 03:56:00
10:56 PM,34.0,25.0,70,30.08,10.0,SSW,3.5,-,N/A,,Clear,200,2012-11-29 04:56:00
11:56 PM,32.0,24.1,73,30.06,10.0,SSW,8.1,-,N/A,,Clear,210,2012-11-29 05:56:00